This demonstration page uses our WeatherBlox Daily Observations layout. Learn more.

Left ArrowRight Arrow

39.08367, -84.50855

Hourly Observations for November 12, 2015

Temp ( °F °C ) Dew Point ( °F °C ) Humidity (%) Winds ( mph kmh ) Pressure ( in mb ) Visibility ( mi km ) Precip ( " mm )
12:53 am 00:53 Cloudy with Light Rain 52 11.1 48 8.9 86 86 VRB 5 7 29.68 1005 7 11 0.08 2.03
1:53 am 01:53 Cloudy with Light Rain 51 10.6 51 10.6 100 100 SSW 6 9 29.67 1005 5 8 0.09 2.29
2:07 am 02:07 Cloudy with Light Rain 52 11.1 51 10.6 97 97 S 5 7 29.71 1006 4 6 0.01 0.25
2:36 am 02:36 Cloudy 52 11.1 51 10.6 97 97 S 8 13 29.68 1005 10 16 0.01 0.25
2:53 am 02:53 Cloudy 52 11.1 51 10.6 97 97 S 8 13 29.63 1004 10 16 0.01 0.25
3:05 am 03:05 Cloudy 53 11.7 51 10.6 93 93 S 12 19 29.62 1003 10 16 0.00 0.00
3:35 am 03:35 Cloudy with Light Rain 53 11.7 51 10.6 93 93 S 9 15 29.59 1002 10 16 0.01 0.25
3:51 am 03:51 Cloudy 54 12 52 11 94 94 S 8 13 29.59 1002 10 16 0.01 0.25
3:53 am 03:53 Cloudy 53 11.7 52 11.1 96 96 S 9 15 29.60 1002 10 16 0.01 0.25
4:53 am 04:53 Mostly Cloudy 54 12.2 53 11.7 97 97 S 13 20 29.58 1002 10 16 0.00 0.00
5:13 am 05:13 Partly Cloudy 55 12.8 53 11.7 93 93 S 10 17 29.59 1002 10 16 0.00 0.00
5:53 am 05:53 Partly Cloudy 58 14.4 56 13.3 93 93 SSW 15 24 29.57 1001 10 16 0.00 0.00
6:53 am 06:53 Mostly Cloudy with Light Rain 59 15 56 13.3 90 90 SSW 18 30 29.57 1001 10 16 0.00 0.03
7:38 am 07:38 Cloudy with Light Rain 57 14 46 8 67 67 W 29 46 29.62 1003 10 16 0.00 0.00
7:53 am 07:53 Mostly Cloudy with Light Rain 56 13.3 45 7.2 67 67 WSW 23 37 29.64 1004 10 16 0.00 0.03
8:35 am 08:35 Sunny 54 12.2 43 6.1 67 67 W 25 41 29.71 1006 10 16 0.00 0.03
8:53 am 08:53 Sunny 53 11.7 41 5 64 64 WSW 22 35 29.71 1006 10 16 0.00 0.03
9:13 am 09:13 Mostly Cloudy 52 11.1 41 5 66 66 WSW 23 37 29.77 1008 10 16 0.00 0.00
9:53 am 09:53 Cloudy 52 11.1 41 5 66 66 WSW 20 31 29.74 1007 10 16 0.00 0.00
10:53 am 10:53 Cloudy 52 11.1 41 5 66 66 WSW 24 39 29.76 1008 10 16 0.00 0.00
11:53 am 11:53 Cloudy 51 10.6 40 4.4 66 66 WSW 20 31 29.78 1009 10 16 0.00 0.00
12:53 pm 12:53 Cloudy 52 11.1 41 5 66 66 WSW 24 39 29.79 1009 10 16 0.00 0.00
1:53 pm 13:53 Cloudy 54 12.2 41 5 62 62 SW 18 30 29.79 1009 10 16 0.00 0.00
2:53 pm 14:53 Mostly Cloudy 54 12.2 41 5 62 62 WSW 20 31 29.81 1010 10 16 0.00 0.00
3:53 pm 15:53 Cloudy 53 11.7 41 5 64 64 WSW 21 33 29.84 1010 10 16 0.00 0.00
4:53 pm 16:53 Cloudy 53 11.7 41 5 64 64 SW 21 33 29.86 1011 10 16 0.00 0.00
5:53 pm 17:53 Cloudy 52 11.1 41 5 66 66 SW 13 20 29.90 1012 10 16 0.00 0.00
6:53 pm 18:53 Cloudy 52 11.1 41 5 66 66 SW 14 22 29.92 1013 10 16 0.00 0.00
7:53 pm 19:53 Mostly Cloudy 51 10.6 41 5 69 69 SW 12 19 29.93 1014 10 16 0.00 0.00
8:53 pm 20:53 Clear 49 9.4 40 4.4 71 71 SW 12 19 29.94 1014 10 16 0.00 0.00
9:53 pm 21:53 Clear 48 8.9 39 3.9 71 71 SW 10 17 29.96 1014 10 16 0.00 0.00
10:53 pm 22:53 Clear 47 8.3 37 2.8 69 69 WSW 8 13 29.96 1015 10 16 0.00 0.00
11:53 pm 23:53 Clear 49 9.4 33 0.6 55 55 W 13 20 29.97 1015 10 16 0.00 0.00

Powered by AerisWeather